Orbital Elements at Epoch 2459200.5 (2020-Dec-17.0) TDB
Reference: JPL 16 (heliocentric ecliptic J2000)
Element | Value | Uncertainty (1-sigma) | Units |
e | .1906218702281571 | 4.7822e-08 | |
a | 2.40390581003981 | 1.1903e-08 | au |
q | 1.945668788677688 | 1.1723e-07 | au |
i | 1.730758018215559 | 4.7977e-06 | deg |
node | 258.7229908775627 | 0.00017761 | deg |
peri | 354.583803522678 | 0.00017812 | deg |
M | 155.5448433384624 | 1.6344e-05 | deg |
tp | 2458612.296350679438 (2019-May-08.79635068) | 5.9451e-05 | TDB |
period | 1361.365052100321 3.73 | 1.0111e-05 2.768e-08 | d yr |
n | .2644404595553486 | 1.9641e-09 | deg/d |
Q | 2.862142831401932 | 1.4172e-08 | au |
|
| | Orbit Determination Parameters
Additional Information
|